GW3798 Weather Reports


Display with metric or nautical units.
time (UTC)temp
F
wind
direction
speed
MPH
gust
MPH
rain 1hr
in
rain 24hr
in
rain mn
in
humidity
%
barometer
mb
20260906210055 84 161 9.0 20.0 0.00 0.00 0.00 39 1016.6
20260906204604 84 172 7.0 17.0 0.00 0.00 0.00 39 1017.0
20260906203057 83 165 10.0 17.0 0.00 0.00 0.00 40 1017.3
20260906201553 83 155 9.0 17.0 0.00 0.00 0.00 41 1017.5
20260906200103 83 122 5.0 15.0 0.00 0.00 0.00 43 1017.6
20260906194553 82 142 7.0 12.0 0.00 0.00 0.00 44 1017.6
20260906193102 81 155 6.0 15.0 0.00 0.00 0.00 45 1017.6
20260906191600 81 169 6.0 14.0 0.00 0.00 0.00 47 1017.9
20260906190113 80 143 10.0 17.0 0.00 0.00 0.00 44 1017.8
20260906184555 80 150 6.0 14.0 0.00 0.00 0.00 47 1017.9
20260906183055 79 129 5.0 12.0 0.00 0.00 0.00 46 1017.9
20260906181549 79 94 6.0 10.0 0.00 0.00 0.00 48 1018.1
20260906180056 77 142 8.0 13.0 0.00 0.00 0.00 49 1018.4
20260906174552 77 180 7.0 17.0 0.00 0.00 0.00 50 1018.7
20260906173047 76 148 6.0 13.0 0.00 0.00 0.00 52 1019.0
20260906171600 74 157 8.0 15.0 0.00 0.00 0.00 53 1019.2
20260906170057 74 153 7.0 16.0 0.00 0.00 0.00 54 1019.2
20260906164551 74 141 6.0 12.0 0.00 0.00 0.00 54 1019.4
20260906163102 72 148 9.0 16.0 0.00 0.00 0.00 56 1019.3
20260906161558 72 165 10.0 16.0 0.00 0.00 0.00 56 1019.4
20260906160108 71 140 9.0 22.0 0.00 0.00 0.00 57 1019.5
20260906154558 70 161 14.0 22.0 0.00 0.00 0.00 60 1019.5
20260906153048 69 164 12.0 17.0 0.00 0.00 0.00 62 1019.6
20260906151559 69 148 10.0 14.0 0.00 0.00 0.00 62 1019.8
20260906150059 69 155 7.0 13.0 0.00 0.00 0.00 64 1019.8
20260906144547 67 130 8.0 13.0 0.00 0.00 0.00 67 1019.9
20260906143046 66 131 9.0 14.0 0.00 0.00 0.00 69 1019.8
20260906141558 65 144 8.0 14.0 0.00 0.00 0.00 70 1019.6
20260906140052 64 151 10.0 14.0 0.00 0.00 0.00 71 1019.7
20260906134601 64 136 9.0 16.0 0.00 0.00 0.00 72 1019.6
20260906133110 64 142 9.0 13.0 0.00 0.00 0.00 71 1019.4
20260906131546 64 142 8.0 12.0 0.00 0.00 0.00 71 1019.7
20260906130048 64 148 9.0 12.0 0.00 0.00 0.00 72 1019.5
20260906124557 64 142 8.0 12.0 0.00 0.00 0.00 71 1019.3
20260906123103 64 151 10.0 14.0 0.00 0.00 0.00 72 1019.2
20260906121548 64 107 8.0 11.0 0.00 0.00 0.00 73 1019.3
20260906114606 64 151 5.0 8.0 0.00 0.00 0.00 74 1019.4
20260906113054 64 141 6.0 9.0 0.00 0.00 0.00 74 1019.4
20260906111554 64 152 7.0 11.0 0.00 0.00 0.00 73 1019.6
20260906104625 64 149 7.0 11.0 0.00 0.00 0.00 73 1019.6
20260906103051 65 135 8.0 11.0 0.00 0.00 0.00 72 1019.7
20260906101547 65 95 6.0 10.0 0.00 0.00 0.00 72 1019.5
20260906100058 64 124 6.0 11.0 0.00 0.00 0.00 72 1019.3
20260906094555 64 129 6.0 10.0 0.00 0.00 0.00 74 1019.3
20260906093108 64 89 6.0 8.0 0.00 0.00 0.00 74 1019.4
20260906091548 64 113 4.0 9.0 0.00 0.00 0.00 74 1019.3
20260906090055 64 106 6.0 8.0 0.00 0.00 0.00 74 1019.5
20260906084548 64 123 4.0 9.0 0.00 0.00 0.00 74 1019.5
20260906083052 65 153 7.0 11.0 0.00 0.00 0.00 74 1019.6
20260906081549 65 156 5.0 9.0 0.00 0.00 0.00 73 1020.0
20260906080046 66 152 8.0 13.0 0.00 0.00 0.00 73 1019.6
20260906074554 66 155 9.0 15.0 0.00 0.00 0.00 72 1019.4
20260906073051 67 137 9.0 16.0 0.00 0.00 0.00 70 1019.4
20260906071547 67 136 11.0 15.0 0.00 0.00 0.00 70 1019.2
20260906070101 68 120 10.0 15.0 0.00 0.00 0.00 68 1019.0
20260906064553 68 153 9.0 13.0 0.00 0.00 0.00 68 1018.9
20260906063049 68 140 8.0 12.0 0.00 0.00 0.00 68 1019.1
20260906061551 69 130 6.0 13.0 0.00 0.00 0.00 68 1018.9
20260906060101 69 140 9.0 15.0 0.00 0.00 0.00 67 1018.8
20260906054604 69 134 13.0 18.0 0.00 0.00 0.00 66 1018.7
20260906053053 69 138 13.0 22.0 0.00 0.00 0.00 66 1018.8
20260906051547 69 134 14.0 23.0 0.00 0.00 0.00 66 1019.0
20260906050120 70 146 14.0 25.0 0.00 0.00 0.00 65 1019.2
20260906044552 71 98 18.0 27.0 0.00 0.00 0.00 63 1019.2
20260906043047 72 121 17.0 23.0 0.00 0.00 0.00 61 1019.2
20260906041600 72 149 12.0 16.0 0.00 0.00 0.00 60 1019.2
20260906040113 72 122 10.0 15.0 0.00 0.00 0.00 57 1019.2
20260906034551 72 92 11.0 19.0 0.00 0.00 0.00 55 1019.2
20260906033102 72 88 13.0 20.0 0.00 0.00 0.00 52 1019.0
20260906031547 72 117 14.0 19.0 0.00 0.00 0.00 49 1019.2
20260906030055 73 94 15.0 21.0 0.00 0.00 0.00 47 1019.1
20260906024602 73 78 12.0 19.0 0.00 0.00 0.00 45 1019.1
20260906023047 74 98 13.0 21.0 0.00 0.00 0.00 44 1018.9
20260906021552 74 115 10.0 19.0 0.00 0.00 0.00 44 1018.7
20260906020059 74 94 11.0 19.0 0.00 0.00 0.00 44 1018.7
20260906014557 75 72 11.0 16.0 0.00 0.00 0.00 43 1018.6
20260906013049 76 76 12.0 21.0 0.00 0.00 0.00 41 1018.7
20260906011602 76 84 14.0 21.0 0.00 0.00 0.00 40 1018.5
20260906010050 77 90 11.0 23.0 0.00 0.00 0.00 38 1018.8
20260906004557 78 102 15.0 21.0 0.00 0.00 0.00 37 1018.5
20260906003050 79 100 13.0 24.0 0.00 0.00 0.00 35 1018.6
20260906001548 80 82 12.0 16.0 0.00 0.00 0.00 34 1018.6
20260906000048 82 142 4.0 11.0 0.00 0.00 0.00 31 1018.9
20260905234610 82 150 10.0 14.0 0.00 0.00 0.00 30 1018.3
20260905233050 84 169 5.0 10.0 0.00 0.00 0.00 29 1018.5
20260905231555 85 213 1.0 6.0 0.00 0.00 0.00 29 1018.7
20260905230129 83 187 3.0 7.0 0.00 0.00 0.00 29 1018.8
20260905224552 83 0 0.0 5.0 0.00 0.00 0.00 33 1018.7
20260905223104 83 274 1.0 5.0 0.00 0.00 0.00 31 1018.7
20260905221547 84 186 2.0 7.0 0.00 0.00 0.00 28 1018.5
20260905214554 83 0 1.0 4.0 0.00 0.00 0.00 29 1018.8
20260905213049 83 0 2.0 6.0 0.00 0.00 0.00 32 1018.9
20260905211603 82 160 3.0 9.0 0.00 0.00 0.00 31 1019.0